Weather History for Sheridan, WY

Change the Weather History Date:

Thursday, February 20, 2014

  Actual Average Record
Temperature  
Mean Temperature 33 °F 28 °F  
Max Temperature 38 °F 40 °F 68 °F (1982)
Min Temperature 27 °F 15 °F -19 °F (1918)
Degree Days  
Heating Degree Days 32 37  
Month to date heating degree days 942 784  
Since 1 July heating degree days 5342 5244  
Cooling Degree Days 0 0  
Month to date cooling degree days 0 0  
Year to date cooling degree days 0 0  
Moisture  
Dew Point 10 °F    
Average Humidity 37    
Maximum Humidity 50    
Minimum Humidity 24    
Precipitation  
Precipitation T in 0.02 in 0.31 in (1957)
Month to date precipitation 0.59 0.38  
Year to date precipitation 1.23 0.94  
Sea Level Pressure  
Sea Level Pressure 29.89 in    
Wind  
Wind Speed 18 mph (NW)    
Max Wind Speed 43 mph    
Max Gust Speed 54 mph    
Visibility 10 miles    
Events      
T = Trace of Precipitation, MM = Missing Value Source: NWS Daily Summary

Daily Weather History Graph

Daily Weather History Graph

Search for Another Location

Airport:

Trip Planner

Search our weather history database for the weather conditions in past years. The results will help you decide how hot, cold, wet, or windy it might be!

Date:

Astronomy

Feb. 20, 2014 Rise Set
Actual Time 7:00 AM MST 5:43 PM MST
Civil Twilight 6:30 AM MST 6:13 PM MST
Nautical Twilight 5:56 AM MST 6:47 PM MST
Astronomical Twilight 5:22 AM MST 7:21 PM MST
Moon 11:57 PM MST (2/20) 9:30 AM MST (2/20)
Length of Visible Light 11h 42m
Length of Day
10h 42m
Waning Gibbous, 70% of the Moon is Illuminated
Feb 20
Waning Gibbous
Feb 22
Last Quarter
Mar 1
New
Mar 8
First Quarter
Mar 16
Full

Hourly Weather History & Observations

Time (MST) Temp. Windchill Dew Point Humidity Pressure Visibility Wind Dir Wind Speed Gust Speed Precip Events Conditions
12:53 AM 27.0 °F 16.7 °F 10.9 °F 51% 29.86 in 10.0 mi WNW 11.5 mph - N/A   Clear
1:53 AM 28.0 °F 14.9 °F 10.0 °F 47% 29.88 in 10.0 mi NW 19.6 mph - N/A   Clear
2:53 AM 27.0 °F 13.2 °F 10.0 °F 49% 29.89 in 10.0 mi WNW 20.7 mph - N/A   Clear
3:53 AM 28.9 °F 16.1 °F 10.9 °F 47% 29.91 in 10.0 mi NW 19.6 mph 32.2 mph N/A   Overcast
4:53 AM 28.9 °F 13.0 °F 9.0 °F 43% 29.93 in 10.0 mi WNW 32.2 mph 41.4 mph N/A   Overcast
5:53 AM 28.9 °F 13.0 °F 9.0 °F 43% 29.96 in 10.0 mi NW 32.2 mph 46.0 mph N/A   Overcast
6:53 AM 28.0 °F 13.6 °F 10.0 °F 47% 29.99 in 10.0 mi NW 24.2 mph 43.7 mph N/A   Overcast
7:53 AM 28.9 °F 14.3 °F 8.1 °F 41% 30.02 in 10.0 mi NW 26.5 mph 39.1 mph N/A   Overcast
8:53 AM 30.9 °F 18.7 °F 9.0 °F 40% 30.02 in 10.0 mi NW 19.6 mph - N/A   Mostly Cloudy
9:53 AM 33.1 °F 20.6 °F 9.0 °F 37% 30.02 in 10.0 mi NW 23.0 mph 28.8 mph N/A   Mostly Cloudy
10:53 AM 35.1 °F 23.5 °F 7.0 °F 31% 29.98 in 10.0 mi NW 21.9 mph 28.8 mph N/A   Clear
11:53 AM 35.1 °F 22.2 °F 6.1 °F 30% 29.95 in 10.0 mi NW 27.6 mph 34.5 mph N/A   Clear
12:53 PM 36.0 °F 25.6 °F 8.1 °F 31% 29.94 in 10.0 mi NNW 18.4 mph - N/A   Clear
1:53 PM 37.0 °F 27.0 °F 3.9 °F 25% 29.90 in 10.0 mi NW 18.4 mph 25.3 mph N/A   Clear
2:53 PM 37.9 °F 29.6 °F 3.0 °F 23% 29.88 in 10.0 mi WNW 13.8 mph 21.9 mph N/A   Clear
3:53 PM 37.0 °F 29.3 °F 3.9 °F 25% 29.87 in 10.0 mi West 11.5 mph - N/A   Clear
4:53 PM 35.1 °F 25.5 °F 10.0 °F 35% 29.86 in 10.0 mi WNW 15.0 mph - N/A   Overcast
5:53 PM 35.1 °F 30.1 °F 10.0 °F 35% 29.84 in 10.0 mi WNW 5.8 mph - N/A   Overcast
6:53 PM 33.1 °F 30.0 °F 10.9 °F 40% 29.83 in 10.0 mi Variable 3.5 mph - N/A   Overcast
7:53 PM 35.1 °F 31.0 °F 12.0 °F 39% 29.80 in 10.0 mi North 4.6 mph - N/A   Overcast
8:53 PM 35.1 °F 32.2 °F 12.0 °F 39% 29.79 in 10.0 mi NNE 3.5 mph - N/A   Overcast
9:42 PM 37.0 °F 26.7 °F 12.9 °F 37% 29.72 in 10.0 mi WNW 19.6 mph 28.8 mph N/A   Overcast
9:53 PM 36.0 °F 26.0 °F 15.1 °F 43% 29.79 in 10.0 mi WNW 17.3 mph - N/A   Overcast
10:53 PM 36.0 °F 22.6 °F 17.1 °F 46% 29.79 in 10.0 mi WNW 32.2 mph 43.7 mph N/A   Overcast
11:53 PM 34.0 °F 24.2 °F 16.0 °F 48% 29.78 in 10.0 mi West 15.0 mph - 0.00 in   Overcast